Regional Weather Roundup
Issued by NWS State College, PA

Home | Current Version | Previous Version | Graphics & Text | Print | Product List | Glossary On
Versions: 1 2 3 4 5 6 7 8 9 10 11 12 13 14 15 16 17 18 19 20 21 22 23 24 25 26 27 28 29 30 31 32 33 34 35 36 37 38 39 40 41 42 43 44 45 46 47 48 49 50
000
ASUS41 KCTP 241810
RWRCTP

REGIONAL WEATHER ROUNDUP
NATIONAL WEATHER SERVICE STATE COLLEGE PA
200 PM EDT SAT JUN 24 2017

Note: "fair" indicates few or no clouds below 12,000 feet with no
significant weather and/or obstructions to visibility.

* = STATION THAT DOES NOT REPORT PRECIPITATION /E.G. RAIN...SNOW...ETC/
    THUNDER OR FOG.

PAZ002>004-007>009-013>016-020>023-029>032-241900-
WESTERN PENNSYLVANIA

CITY           SKY/WX    TMP DP  RH WIND       PRES   REMARKS
ERIE           SUNNY     72  61  68 W14G22    29.87R
MEADVILLE      PTSUNNY   73  57  57 W12G21    29.89R
FRANKLIN*      PTSUNNY   73  55  53 W10G18    29.89S
NEW CASTLE     MOCLDY    75  58  55 W12       29.89S
BEAVER COUNTY  MOSUNNY   75  59  57 W13G18    29.90S
BUTLER*        MOSUNNY   79  59  50 SW14G20   29.89F
PITTSBURGH INT MOSUNNY   78  59  51 W12       29.89F
PITTSBURGH     MOSUNNY   76  55  48 W13G25    29.90F
INDIANA*       PTSUNNY   77  57  50 W12G22    29.93S
LATROBE          N/A     75  59  57 W12G23    29.92F
WASHINGTON CO* MOSUNNY   77  59  53 SW8G20    29.94S
$$

PAZ004>006-010>012-017>019-024>028-033>037-041-042-045-046-049>053-241900-
CENTRAL PENNSYLVANIA

CITY           SKY/WX    TMP DP  RH WIND       PRES   REMARKS
BRADFORD       SUNNY     73  55  53 W12G20    29.87S
DUBOIS         PTSUNNY   75  54  47 W20G29    29.88F
CLEARFIELD     PTSUNNY   77  54  44 W13G22    29.88S
JOHNSTOWN      MOSUNNY   73  56  54 W12G23    29.94S
ALTOONA        MOSUNNY   77  56  48 W14       29.91F
STATE COLLEGE  MOSUNNY   77  57  50 SW9       29.88R
WILLIAMSPORT   PTSUNNY   83  59  44 W13       29.79S
SELINSGROVE    MOSUNNY   82  61  48 VRB7      29.83S
FT INDIANTOWN  MOSUNNY   82  58  43 W9        29.83S
CAPITAL CITY   MOSUNNY   82  56  40 NW8       29.84S
HARRISBURG     PTSUNNY   82  59  45 NW10      29.83S
YORK           MOSUNNY   82  59  45 W10G20    29.85S
$$

PAZ038>040-043-044-047-048-054-055-060>062-067>071-241900-
EASTERN PENNSYLVANIA

CITY           SKY/WX    TMP DP  RH WIND       PRES   REMARKS
SCRANTON       SUNNY     81  53  37 N10G23    29.81S
MOUNT POCONO   SUNNY     74  50  42 NW16G31   29.85R
ALLENTOWN      MOSUNNY   83  57  41 W15G21    29.80R
QUAKERTOWN*    CLEAR     82  57  42 W10G17    29.82S
READING        MOSUNNY   84  60  44 W15       29.81S
LANCASTER      MOSUNNY   83  61  47 W14       29.83F
COATESVILLE    PTCLDY    81  59  47 NW13G20   29.86R
POTTSTOWN      MOSUNNY   81  59  47 W10       29.83R
BLUE BELL      SUNNY     81  61  50 W6G17     29.82S
DOYLESTOWN     MOSUNNY   83  59  44 W10G20    29.79S
WILLOW GROVE   NOT AVBL
NORTH PHILA    SUNNY     86  58  38 NW15      29.80S
PHILADELPHIA   MOSUNNY   86  58  38 W20       29.80S
$$




USA.gov is the U.S. government's official web portal to all federal, state and local government web resources and services.